User: anonymous   Login
Location: downtown San Diego
(32.7310°N, 117.1990°W)
Time: 14:11:05
(UTC-07:00)
Language:

Lacrosse 5 rocket - Orbit

View from above orbital plane
View from above orbital plane
View from above satellite
View from above satellite

Ground track
Ground track

The orbit data is extracted from the following two-line orbital elements,

1 28647U 05016B   19294.90860733 +.00000073 +00000-0 +22680-4 0  9992
2 28647 056.9954 134.4990 0130418 071.7985 289.7199 15.05794258023872
Epoch (UTC): 21 October 2019 21:48:23
Eccentricity: 0.0130418
inclination: 56.9954°
perigee height: 459 km
apogee height: 639 km
right ascension of ascending node: 134.4990°
argument of perigee: 71.7985°
revolutions per day: 15.05794258
mean anomaly at epoch: 289.7199°
orbit number at epoch: 2387

The dashed part of the orbit path shows where the satellite is in the earth's shadow,  

DLR